Temperature
16 16 17 17 17 18 20 22 23 23 23 23 23 23 21 19 19 17 15 15 15 16 16 16 16 16 16 16 16 16 16 16 16 16 16 16 16 16 16 16 16 16 16 16 16 16 16 16 16
15 16 16 17 17 18 20 21 22 22 22 21 22 22 21 18 17 15 15 15 15 15 16 16 16 16 16 16 16 16 16 16 16 16 16 16 16 16 16 16 16 16 16 16 16 16 16 16 16
15 15 16 17 18 19 20 21 21 21 21 21 21 20 19 17 16 15 15 15 15 15 15 16 16 16 16 16 16 16 16 16 16 16 16 16 16 16 16 16 16 16 16 16 16 16 15 15 15
15 15 17 17 18 20 21 21 20 20 20 20 20 18 16 15 15 14 14 15 15 15 15 15 15 15 15 15 15 15 15 16 16 16 16 16 16 16 15 15 16 16 16 16 16 15 15 15 15
15 16 16 17 18 20 20 21 20 19 19 20 20 17 15 14 14 14 14 14 14 14 14 15 15 15 15 15 15 15 15 15 15 15 15 15 15 15 15 15 15 15 15 15 15 15 15 15 15
15 16 16 17 18 19 20 20 20 20 19 19 19 17 14 14 14 14 14 14 14 14 14 14 14 14 15 15 15 15 15 15 15 15 15 15 15 15 15 15 15 15 15 15 15 15 15 15 15
15 15 16 18 18 18 19 19 20 19 19 19 19 17 14 14 14 14 14 14 14 14 14 14 14 14 14 14 14 14 14 14 14 14 14 14 14 14 14 14 15 15 15 15 15 15 15 15 15
14 15 17 17 17 18 18 18 19 19 18 17 17 17 14 13 13 13 13 13 13 14 14 14 14 14 14 14 14 14 14 14 14 14 14 14 14 14 14 14 14 14 14 14 14 15 15 15 15
14 14 16 17 17 17 17 17 17 17 16 15 15 15 14 13 13 13 13 13 13 13 13 14 14 14 14 14 13 13 13 13 13 14 14 13 13 13 13 13 13 13 14 14 14 14 14 14 14
15 14 15 16 16 16 16 16 16 16 15 15 14 13 13 13 13 13 13 13 13 13 13 13 13 14 14 13 13 13 13 13 13 13 13 13 13 13 13 13 13 13 13 13 13 13 14 14 14
15 14 14 15 15 16 16 16 16 16 15 15 14 13 13 13 13 13 12 12 12 13 13 13 13 13 13 13 13 13 13 13 13 13 13 13 13 13 13 13 13 13 13 13 13 13 13 13 13
14 14 14 14 14 15 15 15 15 15 14 14 14 13 12 12 12 12 12 12 12 12 13 13 13 13 13 13 13 13 12 12 12 12 12 12 12 12 12 12 12 12 12 12 12 12 13 13 13
13 13 13 13 13 14 14 14 13 13 13 13 13 12 12 12 12 12 12 12 12 12 12 12 13 13 13 13 12 12 12 12 12 12 12 12 12 12 12 12 12 12 12 12 12 12 12 12 12
13 13 13 13 13 13 13 13 13 13 13 12 12 12 12 12 12 11 11 11 12 12 12 12 12 12 12 12 12 12 12 12 11 11 11 11 11 11 11 11 11 11 11 11 11 11 11 12 12
13 12 12 13 13 13 13 12 12 13 12 12 12 11 11 11 11 11 11 11 11 12 12 12 12 12 12 12 11 11 11 11 11 11 11 11 11 11 11 11 11 11 11 11 11 11 11 11 11
14 13 12 13 13 13 12 12 13 13 12 12 12 12 11 11 11 11 11 11 11 11 11 11 11 11 11 11 11 11 11 11 11 11 11 11 11 10 10 10 10 10 10 10 11 11 11 11 11
13 13 13 12 13 13 13 12 12 12 12 12 12 12 11 11 11 11 11 11 11 11 11 11 11 11 11 11 11 11 10 10 10 10 10 10 10 10 10 10 10 10 10 10 10 10 10 10 10
12 13 13 12 12 13 12 12 12 12 12 12 12 12 12 11 11 11 11 11 11 11 11 11 11 11 11 10 10 10 10 10 10 10 10 10 10 10 9 9 9 9 9 9 9 9 9 9 9
13 14 13 12 12 12 12 12 13 13 12 12 12 12 12 12 11 11 11 11 10 10 11 11 11 11 10 10 10 10 10 10 9 9 9 9 9 9 9 9 9 9 9 8 9 9 9 9 9
13 13 12 12 12 12 12 12 13 13 13 13 13 13 12 12 11 11 10 10 10 10 10 10 10 10 10 10 10 10 9 9 9 9 9 9 9 9 8 8 8 8 8 8 8 8 8 8 8
12 12 12 11 11 12 12 12 13 13 13 13 12 12 12 12 11 11 10 10 10 10 10 10 10 10 10 10 10 9 9 9 9 9 9 8 8 8 8 8 8 8 8 7 7 7 7 7 7
11 11 11 11 11 11 12 10 13 13 12 12 12 12 12 12 11 11 10 10 10 10 10 10 10 10 10 9 9 9 9 8 8 8 8 8 8 8 8 8 7 7 7 7 7 7 6 6 6
10 11 11 11 11 10 12 11 11 13 13 12 12 12 11 11 11 10 10 10 9 9 10 10 9 9 9 9 9 9 8 8 8 8 8 8 7 7 7 7 7 7 7 7 6 6 6 6 6
10 10 11 10 10 10 12 11 11 12 13 12 12 12 11 11 10 10 10 10 9 9 9 9 9 9 9 9 8 8 8 8 8 7 7 7 7 7 7 7 6 6 6 6 6 6 5 5 5
10 10 10 10 9 10 11 11 11 13 13 13 12 12 11 11 10 10 9 9 9 9 9 9 9 9 9 8 8 8 8 7 7 7 7 7 7 6 6 6 6 6 5 5 5 5 5 5 4
11 10 9 10 10 11 10 10 11 12 12 12 12 11 11 10 10 10 9 9 9 9 9 9 9 9 8 8 8 8 7 7 7 7 7 6 6 6 6 6 5 5 5 5 5 4 4 4 4
10 10 10 9 10 10 11 12 12 12 11 12 12 11 11 10 10 10 9 9 9 9 9 9 9 8 8 8 7 7 7 7 6 6 6 6 6 6 5 5 5 5 5 4 4 4 3 3 3
9 10 9 9 9 10 12 13 11 11 11 11 11 11 11 10 10 10 9 9 9 9 9 8 8 8 8 8 7 7 7 6 6 6 6 6 5 5 5 5 4 4 4 4 3 3 3 3 3
9 9 9 9 9 9 10 11 12 11 11 11 11 11 11 10 10 10 9 9 9 9 8 8 8 8 8 7 7 7 6 6 6 6 6 5 5 5 5 4 4 4 4 3 3 3 2 2 2
10 10 10 9 9 9 8 9 11 10 11 11 11 11 10 10 10 9 9 9 9 8 8 8 8 7 7 7 7 7 6 6 6 6 5 5 5 5 4 4 4 4 3 3 3 2 2 2 2
Wind_Speed
11 11 6 3 3 6 9 5 3 3 1 1 4 4 6 7 5 9 4 5 7 8 11 11 9 9 8 8 7 7 7 6 6 6 5 5 5 4 4 3 3 3 3 1 1 1 1 1 1
10 7 4 4 5 8 7 7 4 2 4 5 4 5 7 7 8 8 5 4 6 9 11 10 9 8 8 8 8 7 6 6 6 6 5 5 5 4 4 4 4 3 3 3 2 1 0 1 1
9 7 4 4 6 8 5 7 6 6 7 5 4 6 5 6 6 5 4 3 7 9 11 11 10 9 8 8 7 7 6 6 6 5 5 5 5 4 4 4 4 4 4 3 3 2 2 2 2
4 3 4 6 9 6 3 5 8 8 5 3 6 7 5 6 5 5 4 4 7 8 11 11 10 8 8 8 8 7 7 6 6 6 5 5 5 5 5 4 4 4 4 3 3 3 3 4 4
3 3 5 7 8 3 1 4 7 8 6 4 4 6 5 5 6 6 5 5 6 7 9 9 9 8 8 7 7 7 7 7 6 6 6 5 5 5 5 5 4 4 4 4 4 4 4 5 6
3 3 5 8 7 4 3 4 5 7 6 4 4 6 5 5 6 5 5 6 7 7 8 8 8 8 7 7 7 7 7 7 6 6 6 5 5 4 4 4 4 4 4 5 5 5 6 6 6
3 3 5 6 6 5 4 2 4 6 7 4 2 6 6 6 5 4 6 7 7 8 8 7 6 7 7 7 7 7 6 6 6 6 6 6 5 4 4 4 4 5 5 6 6 6 7 7 8
3 3 5 5 7 5 5 2 3 4 5 4 4 3 6 7 5 5 6 7 7 7 6 6 7 6 5 5 6 5 5 5 5 5 6 6 5 4 3 3 4 5 6 6 7 7 8 8 9
2 2 4 3 4 6 6 4 4 6 6 5 6 6 8 9 7 6 5 6 7 7 6 6 6 7 6 5 5 4 4 5 5 5 6 5 5 5 5 4 5 5 6 7 7 8 9 10 10
2 2 1 4 2 6 6 5 4 3 5 4 6 9 8 7 6 6 6 6 6 6 6 5 5 6 7 5 5 5 5 5 5 6 7 6 6 6 6 6 6 6 6 7 8 9 10 9 8
0 1 2 5 5 6 6 4 3 4 3 4 7 8 7 6 6 6 6 7 6 6 6 5 5 6 6 6 5 5 6 6 6 7 8 8 7 7 6 5 5 6 6 6 7 7 7 7 6
3 4 4 3 4 4 5 3 1 1 3 5 7 8 6 6 6 6 6 6 6 6 5 5 4 5 6 6 5 5 6 6 6 7 8 8 5 5 5 4 5 6 6 6 6 6 7 8 7
4 4 5 5 5 5 5 3 3 2 4 7 8 7 6 6 6 6 5 5 6 6 5 4 4 5 5 5 5 5 5 6 6 7 9 9 6 4 5 5 6 7 7 6 5 5 6 6 6
6 7 6 5 5 4 5 2 1 2 4 6 6 5 4 5 5 5 4 4 5 6 5 4 5 5 5 4 3 4 5 6 7 8 9 9 8 6 5 5 6 7 8 8 7 6 6 5 5
8 7 5 3 3 3 3 1 3 5 6 6 6 5 5 4 4 4 4 4 5 5 4 4 4 5 5 5 5 5 6 6 6 7 10 10 10 8 7 4 4 7 9 9 7 7 6 6 6
5 4 4 3 2 3 2 2 4 7 6 6 6 5 5 4 4 4 4 5 4 4 4 4 4 4 5 4 4 4 6 7 6 8 9 10 10 10 7 4 5 9 9 7 5 5 6 6 6
4 3 5 4 2 2 3 2 5 6 6 6 5 5 5 5 5 5 5 5 4 3 4 4 4 4 3 3 2 3 4 5 6 7 8 9 9 10 8 5 6 9 7 5 6 6 6 6 7
3 3 3 4 2 1 2 3 4 6 7 7 6 5 6 6 6 6 6 6 5 4 3 4 4 3 3 2 1 2 3 3 5 6 8 9 9 10 8 5 6 7 4 5 5 6 6 5 6
1 3 4 3 2 0 3 5 5 6 7 7 6 6 6 6 6 7 7 6 5 4 3 3 3 2 2 2 2 2 2 2 3 4 7 8 9 9 7 5 5 5 4 5 6 5 6 6 6
3 4 3 3 2 1 3 6 7 7 7 6 6 6 5 5 6 6 7 6 4 4 3 3 3 2 2 2 1 0 0 0 1 2 4 6 7 8 7 6 4 4 4 5 6 6 5 4 5
5 3 3 2 1 3 3 5 5 4 5 5 4 4 4 5 6 7 7 6 5 4 3 3 2 2 1 1 0 0 0 1 1 1 2 3 5 6 6 7 5 5 4 4 5 5 5 4 4
3 4 3 1 1 1 1 3 3 6 7 7 6 5 4 3 4 5 6 6 5 5 4 3 3 2 1 1 0 0 1 1 1 1 1 1 3 4 5 6 5 4 3 4 5 5 4 4 4
3 2 2 2 2 2 3 3 5 4 6 7 6 5 4 4 4 4 5 5 5 5 5 4 3 3 2 1 1 1 2 1 1 1 1 1 1 2 4 4 5 4 3 4 4 5 4 3 3
0 2 3 2 1 2 3 3 3 2 3 5 6 6 4 4 4 4 4 4 3 4 4 4 4 4 3 3 3 3 3 2 2 2 2 2 1 1 2 3 4 4 3 3 3 4 4 4 4
2 1 1 1 1 3 2 2 5 2 5 5 6 6 4 4 4 3 4 4 4 4 4 5 5 4 4 4 4 3 3 3 2 2 2 2 2 1 2 2 2 3 3 4 4 3 4 3 4
2 3 1 1 2 1 1 4 3 5 6 6 5 5 4 4 3 3 3 4 4 5 5 5 5 5 5 5 4 4 3 3 3 3 2 2 2 2 1 2 2 3 3 4 3 3 3 3 3
3 1 2 2 3 3 4 4 3 6 6 5 5 4 3 3 3 2 2 3 4 5 5 5 6 5 5 5 5 4 4 4 4 3 3 2 2 2 2 2 2 2 3 3 3 2 3 3 3
3 4 1 1 1 3 4 3 3 4 4 5 4 3 3 3 1 1 2 2 3 3 4 4 5 5 5 5 5 5 5 5 4 4 4 3 3 2 2 2 2 2 2 2 2 3 3 3 3
3 2 2 2 1 1 3 2 2 5 6 5 4 3 1 0 1 1 2 2 3 3 3 4 4 5 4 5 5 5 5 5 5 4 5 4 4 3 3 3 3 3 3 2 2 3 3 3 3
2 3 2 1 3 3 2 4 3 7 6 4 3 1 1 2 1 2 2 2 2 2 3 4 4 4 5 5 5 5 5 5 5 5 5 5 5 4 4 3 3 3 3 3 3 4 3 3 3
Wind_Direction
285 267 249 241 229 229 228 224 187 159 178 63 29 40 69 39 50 110 122 70 90 100 98 93 86 82 75 71 70 68 63 57 52 45 41 36 32 27 23 22 24 23 16 11 34 70 81 86 96
276 259 239 232 228 223 216 199 186 143 99 83 47 55 76 73 72 94 88 69 92 96 98 94 86 82 75 71 67 66 60 53 47 41 37 29 22 13 15 17 11 6 8 12 355 314 203 175 178
264 246 234 224 228 231 203 166 143 104 91 90 66 36 53 71 75 80 79 76 89 88 94 94 86 80 76 71 66 60 55 48 43 38 31 22 16 14 12 10 9 3 356 360 358 321 270 241 233
248 221 242 235 229 236 235 131 122 112 95 83 107 84 66 35 46 82 89 77 88 88 88 95 89 82 77 73 67 60 51 44 39 33 25 17 12 9 8 8 5 357 351 346 332 318 282 255 247
237 228 220 223 225 215 159 99 129 130 133 147 124 102 88 73 73 76 77 80 82 86 85 93 95 88 82 77 70 61 53 46 40 34 25 15 7 3 1 0 354 340 331 325 322 307 297 272 256
229 237 222 210 197 181 141 117 140 132 128 140 128 110 107 104 79 64 66 73 76 79 81 86 89 91 87 84 74 64 53 44 40 34 26 14 3 355 351 350 347 328 317 312 304 300 293 285 268
246 240 239 211 182 177 151 139 162 133 135 131 101 110 126 115 89 84 78 72 73 69 71 70 74 76 77 85 80 69 60 47 38 33 22 7 356 349 348 347 346 337 317 305 298 292 288 280 271
298 283 247 219 180 167 126 129 68 90 100 44 16 123 138 122 117 100 87 80 74 69 65 59 54 54 53 67 76 69 68 51 36 30 16 358 349 341 336 350 347 335 328 310 296 288 284 277 270
282 264 229 224 177 134 130 114 56 46 73 62 37 57 95 117 128 118 106 90 73 64 57 53 43 38 34 36 56 55 66 53 40 25 13 357 347 353 349 350 344 334 325 316 301 289 282 274 266
234 245 10 355 25 121 131 117 114 118 115 112 95 86 101 123 129 120 105 90 77 65 57 51 40 33 28 27 30 27 36 36 31 20 6 352 354 355 355 347 334 320 314 313 309 299 286 276 265
124 77 62 24 41 107 121 118 151 154 171 153 139 131 129 127 117 108 97 89 80 72 60 53 38 35 29 16 18 18 23 21 20 15 1 357 5 3 359 353 345 332 324 318 315 305 297 287 272
103 54 56 45 45 95 112 120 112 44 75 83 105 123 130 129 121 111 101 94 86 73 68 61 45 39 30 23 11 21 21 18 17 15 8 6 4 0 355 351 349 345 338 334 332 319 313 310 305
105 90 77 71 65 81 87 89 63 54 80 89 105 115 127 126 118 108 102 101 94 78 66 62 57 44 33 27 15 25 19 15 15 17 15 14 7 357 356 351 354 350 345 341 331 325 322 319 316
113 110 104 101 99 94 101 99 109 177 123 118 125 133 136 129 123 116 114 107 93 80 77 69 61 45 35 34 26 28 17 16 22 20 16 15 10 1 353 352 357 357 348 343 337 331 322 315 314
128 120 110 117 126 109 108 182 192 163 145 149 155 156 144 136 128 123 114 97 86 81 86 80 77 55 40 32 21 29 23 23 28 23 18 15 9 3 358 356 355 350 344 342 340 337 332 323 320
162 154 136 133 146 148 185 218 156 152 158 169 175 169 157 156 150 136 120 107 94 88 88 73 63 56 45 33 19 28 31 26 26 28 21 13 12 8 4 2 356 351 348 350 341 341 335 329 326
190 177 135 134 161 183 215 208 146 156 176 189 191 181 171 169 162 149 133 124 113 101 95 90 75 60 45 29 25 52 47 36 29 28 23 14 13 8 7 6 1 352 350 347 345 346 339 332 329
183 165 133 138 141 187 224 223 193 183 194 198 199 196 183 178 168 154 138 129 122 111 103 97 84 63 43 20 19 53 51 43 38 33 22 15 12 8 7 5 358 356 350 351 351 343 338 331 325
171 123 102 85 89 249 233 248 234 196 201 207 206 209 198 183 160 146 136 133 133 129 123 108 91 66 50 37 23 34 31 27 27 28 22 16 12 8 8 2 354 355 351 348 350 342 338 339 334
80 90 82 80 77 284 275 267 247 212 204 202 202 209 202 178 158 151 140 141 146 148 145 125 111 91 69 67 32 52 31 4 41 27 18 15 14 10 8 4 354 351 347 354 353 349 341 339 353
53 51 71 62 315 237 264 283 211 181 178 179 189 202 206 188 171 160 154 155 158 160 156 142 132 122 115 109 76 358 345 311 9 360 355 11 15 13 9 360 357 351 355 352 347 349 349 336 335
70 44 53 12 318 249 197 295 253 175 174 184 187 192 199 181 160 158 159 162 170 171 156 151 155 160 164 156 164 243 259 273 281 296 311 348 19 16 9 359 356 349 348 351 347 351 337 337 333
70 6 333 309 304 314 228 227 267 171 181 181 169 167 169 159 153 152 152 161 169 163 159 167 175 187 187 186 199 238 265 273 303 323 321 338 354 14 10 359 355 348 348 346 344 343 345 342 333
268 257 232 247 293 280 222 201 270 199 163 143 140 142 144 140 142 144 147 150 162 160 165 176 188 205 199 200 210 219 239 258 284 300 313 319 317 337 6 356 348 341 341 335 332 332 336 336 329
272 316 12 352 259 244 126 190 251 117 92 108 121 119 122 131 141 154 163 172 182 186 192 192 200 217 210 206 215 220 225 229 244 260 269 285 297 308 321 343 332 331 333 335 335 328 327 330 324
323 347 37 281 294 314 195 227 239 108 99 94 104 123 132 138 142 158 177 188 195 203 204 201 210 221 216 211 215 218 221 218 227 230 236 250 258 268 291 318 318 319 327 329 328 316 316 323 321
330 26 3 325 302 282 247 207 137 115 117 128 139 138 139 124 129 164 193 199 206 211 210 208 214 219 217 213 211 215 218 216 220 224 225 232 239 251 273 288 294 309 314 315 310 305 311 315 315
319 336 327 210 319 289 270 220 177 142 137 136 128 107 84 77 90 216 223 213 215 217 214 212 216 221 220 214 212 216 214 216 219 218 222 227 231 238 248 258 268 279 289 302 305 299 298 308 310
180 229 249 278 280 266 300 308 79 116 111 109 101 86 61 352 289 263 244 230 222 216 209 218 223 223 223 220 216 216 216 216 216 219 222 223 228 230 238 248 256 263 271 283 290 289 294 298 301
302 258 230 229 262 239 262 276 79 102 108 98 78 44 358 345 317 277 256 244 240 236 230 227 225 225 224 221 219 219 220 216 221 226 224 221 225 223 225 235 245 255 264 268 274 282 287 283 288
Height
1502 1504 1507 1510 1512 1511 1506 1498 1492 1495 1497 1500 1501 1502 1506 1513 1517 1529 1531 1529 1530 1530 1531 1532 1533 1534 1535 1536 1536 1537 1537 1538 1538 1539 1539 1539 1539 1539 1539 1539 1539 1539 1539 1539 1539 1539 1539 1539 1539
1501 1505 1508 1509 1510 1511 1503 1496 1495 1496 1499 1501 1503 1505 1509 1517 1521 1525 1527 1529 1530 1530 1530 1531 1533 1533 1534 1535 1536 1536 1537 1537 1538 1538 1538 1538 1539 1539 1539 1539 1539 1539 1539 1539 1539 1539 1539 1539 1539
1501 1504 1507 1505 1504 1503 1498 1493 1495 1498 1501 1503 1506 1509 1514 1520 1523 1525 1527 1529 1530 1530 1530 1531 1532 1533 1534 1534 1535 1536 1536 1536 1537 1537 1537 1538 1538 1538 1538 1538 1538 1538 1538 1538 1538 1538 1538 1538 1538
1501 1505 1505 1504 1500 1496 1493 1492 1495 1499 1503 1506 1509 1514 1519 1523 1524 1525 1527 1529 1530 1530 1530 1531 1532 1533 1533 1534 1535 1535 1535 1536 1536 1536 1536 1537 1537 1537 1537 1537 1537 1537 1537 1537 1537 1537 1537 1537 1537
1502 1502 1503 1502 1498 1495 1493 1494 1496 1500 1504 1508 1510 1515 1521 1524 1524 1525 1527 1528 1530 1530 1530 1531 1532 1533 1533 1534 1534 1534 1535 1535 1535 1535 1536 1536 1536 1536 1535 1535 1535 1535 1535 1535 1535 1536 1536 1536 1536
1502 1499 1502 1501 1498 1495 1496 1497 1498 1501 1505 1509 1512 1516 1522 1524 1524 1525 1527 1528 1529 1530 1530 1531 1532 1532 1533 1533 1534 1534 1534 1534 1535 1535 1534 1534 1534 1534 1534 1534 1534 1534 1534 1534 1534 1534 1534 1534 1534
1500 1499 1497 1494 1497 1497 1498 1499 1500 1502 1506 1510 1512 1516 1522 1524 1524 1525 1527 1528 1529 1530 1530 1531 1532 1532 1533 1533 1533 1533 1534 1534 1534 1534 1534 1533 1533 1533 1533 1532 1532 1532 1532 1532 1531 1532 1532 1532 1532
1498 1498 1495 1494 1496 1498 1499 1501 1502 1504 1507 1511 1513 1516 1520 1522 1524 1525 1526 1528 1528 1529 1530 1531 1531 1532 1532 1532 1533 1533 1533 1533 1533 1533 1532 1532 1532 1532 1531 1531 1530 1530 1530 1529 1529 1529 1529 1529 1529
1498 1501 1498 1494 1495 1498 1500 1503 1505 1506 1509 1513 1514 1516 1518 1521 1523 1525 1527 1528 1528 1529 1529 1530 1531 1531 1531 1532 1532 1532 1532 1532 1532 1532 1531 1531 1531 1530 1530 1529 1529 1528 1528 1527 1527 1527 1527 1527 1527
1498 1501 1498 1497 1495 1497 1501 1505 1507 1510 1512 1515 1517 1518 1519 1521 1523 1525 1527 1527 1528 1528 1529 1529 1530 1530 1530 1531 1531 1531 1531 1531 1530 1530 1530 1530 1529 1529 1528 1528 1527 1526 1526 1525 1525 1524 1524 1524 1524
1497 1499 1499 1499 1498 1499 1503 1506 1509 1510 1513 1514 1516 1518 1520 1522 1524 1525 1526 1527 1527 1528 1528 1529 1529 1529 1530 1530 1530 1530 1530 1529 1529 1529 1529 1528 1528 1527 1526 1526 1525 1524 1524 1523 1523 1522 1522 1521 1521
1499 1500 1500 1501 1501 1503 1506 1508 1510 1511 1513 1514 1516 1518 1520 1522 1523 1524 1525 1526 1526 1527 1528 1528 1528 1529 1529 1529 1528 1528 1528 1528 1528 1528 1527 1527 1526 1525 1525 1524 1523 1523 1522 1521 1520 1520 1519 1519 1518
1499 1502 1504 1504 1505 1506 1508 1510 1512 1513 1514 1515 1517 1518 1520 1521 1523 1524 1525 1525 1526 1526 1526 1527 1527 1528 1528 1528 1528 1527 1527 1527 1527 1526 1526 1525 1524 1523 1523 1522 1521 1521 1520 1519 1518 1517 1517 1516 1516
1500 1503 1505 1507 1508 1509 1510 1512 1514 1514 1514 1516 1517 1519 1520 1522 1523 1523 1524 1524 1525 1525 1526 1526 1527 1527 1527 1527 1526 1526 1526 1526 1525 1525 1524 1524 1523 1522 1521 1520 1519 1518 1518 1517 1516 1515 1514 1513 1513
1502 1505 1508 1509 1509 1510 1512 1514 1513 1514 1515 1516 1517 1519 1520 1521 1522 1523 1523 1523 1524 1524 1525 1525 1525 1525 1526 1525 1525 1525 1525 1525 1524 1524 1523 1522 1522 1521 1519 1518 1517 1516 1515 1514 1513 1512 1511 1510 1509
1502 1505 1510 1510 1510 1511 1514 1516 1512 1513 1514 1515 1517 1518 1519 1520 1521 1522 1522 1522 1523 1524 1523 1524 1524 1524 1524 1524 1524 1524 1524 1523 1523 1523 1522 1521 1520 1519 1518 1516 1515 1514 1513 1512 1511 1510 1508 1507 1506
1504 1506 1508 1511 1510 1510 1512 1513 1512 1512 1513 1514 1516 1517 1518 1519 1520 1521 1521 1521 1522 1523 1523 1523 1523 1523 1523 1523 1524 1523 1523 1523 1522 1521 1521 1520 1519 1517 1516 1515 1514 1512 1511 1510 1508 1507 1506 1504 1503
1507 1504 1506 1510 1510 1510 1511 1512 1511 1511 1512 1513 1514 1516 1517 1518 1518 1519 1519 1520 1520 1521 1522 1522 1522 1522 1522 1523 1523 1523 1522 1522 1521 1520 1519 1518 1517 1516 1515 1513 1512 1510 1509 1507 1506 1504 1503 1501 1500
1501 1502 1507 1510 1510 1511 1511 1510 1508 1508 1509 1510 1512 1513 1515 1516 1517 1517 1517 1518 1519 1520 1520 1521 1521 1521 1522 1522 1522 1521 1521 1520 1520 1519 1518 1517 1516 1514 1513 1512 1510 1509 1507 1506 1504 1502 1501 1499 1497
1502 1506 1510 1511 1510 1511 1510 1509 1504 1504 1505 1507 1509 1511 1512 1513 1514 1515 1516 1516 1518 1519 1519 1519 1520 1521 1521 1521 1521 1520 1520 1519 1518 1517 1516 1515 1514 1513 1511 1510 1509 1507 1506 1504 1502 1500 1499 1497 1496
1508 1511 1512 1514 1513 1510 1512 1509 1501 1500 1502 1505 1506 1508 1510 1512 1513 1514 1514 1515 1516 1517 1518 1518 1519 1519 1519 1519 1519 1519 1518 1517 1517 1516 1515 1513 1512 1511 1510 1508 1507 1505 1504 1502 1500 1499 1497 1496 1495
1514 1514 1514 1514 1516 1516 1512 1521 1503 1499 1502 1503 1505 1507 1509 1510 1512 1513 1513 1514 1515 1516 1516 1517 1518 1518 1518 1518 1517 1517 1516 1515 1514 1513 1512 1511 1510 1509 1508 1507 1505 1504 1502 1500 1499 1497 1496 1494 1493
1516 1515 1515 1514 1515 1518 1513 1519 1510 1499 1501 1502 1503 1506 1507 1509 1510 1511 1512 1513 1514 1514 1514 1515 1515 1516 1516 1515 1515 1514 1514 1513 1512 1511 1510 1510 1508 1507 1506 1504 1503 1502 1500 1499 1497 1496 1494 1493 1491
1516 1516 1515 1516 1518 1524 1511 1515 1512 1501 1498 1500 1502 1505 1506 1508 1509 1510 1511 1511 1512 1512 1513 1513 1513 1513 1513 1513 1512 1512 1511 1510 1510 1509 1508 1507 1506 1505 1504 1502 1501 1499 1498 1496 1495 1493 1492 1490 1489
1517 1519 1523 1524 1524 1520 1510 1514 1511 1498 1497 1499 1502 1504 1506 1507 1508 1509 1509 1509 1510 1510 1511 1511 1511 1511 1511 1510 1510 1509 1508 1508 1507 1506 1505 1504 1503 1502 1501 1500 1498 1497 1495 1493 1492 1490 1489 1488 1487
1517 1519 1527 1528 1523 1517 1514 1516 1505 1497 1497 1499 1501 1504 1506 1506 1507 1507 1508 1508 1508 1508 1509 1508 1508 1508 1508 1507 1506 1506 1505 1504 1504 1503 1502 1501 1500 1499 1498 1497 1495 1494 1492 1490 1489 1488 1486 1485 1484
1519 1521 1521 1525 1519 1523 1513 1502 1499 1497 1499 1500 1502 1503 1505 1505 1506 1506 1507 1506 1506 1506 1506 1506 1505 1504 1504 1504 1503 1502 1502 1501 1500 1499 1499 1498 1496 1495 1494 1493 1492 1491 1489 1488 1486 1485 1483 1482 1481
1522 1521 1524 1526 1528 1524 1508 1500 1504 1501 1500 1501 1502 1503 1504 1505 1505 1505 1505 1504 1504 1504 1503 1503 1502 1501 1500 1500 1499 1498 1498 1497 1497 1496 1495 1494 1493 1492 1491 1490 1489 1487 1486 1485 1483 1482 1480 1479 1478
1523 1523 1522 1522 1523 1527 1521 1512 1499 1499 1499 1501 1502 1503 1504 1504 1504 1503 1503 1502 1502 1501 1500 1499 1498 1498 1497 1496 1495 1495 1494 1493 1492 1492 1491 1490 1490 1489 1488 1487 1485 1484 1483 1481 1480 1479 1477 1476 1475
1519 1517 1519 1526 1524 1521 1525 1519 1499 1498 1499 1501 1502 1502 1502 1502 1502 1502 1501 1500 1499 1498 1497 1496 1495 1494 1493 1492 1492 1491 1490 1489 1488 1487 1487 1486 1486 1485 1484 1483 1482 1481 1479 1478 1476 1475 1474 1473 1471